Regional Weather Roundup
Issued by NWS Northern Indiana

Home | Current Version | Previous Version | Text Only | Print | Product List | Glossary On
Versions: 1 2 3 4 5 6 7 8 9 10 11 12 13 14 15 16 17 18 19 20 21 22 23 24 25 26 27 28 29 30 31 32 33 34 35 36 37 38 39 40 41 42 43 44 45 46 47 48 49 50
000
ASUS43 KIWX 110310
RWRIWX

KIWX WEATHER ROUNDUP
NATIONAL WEATHER SERVICE NORTHERN INDIANA
1000 PM EST SAT DEC 10 2016

NOTE: "FAIR" INDICATES FEW OR NO CLOUDS BELOW 12,000 FEET WITH NO
SIGNIFICANT WEATHER AND/OR OBSTRUCTIONS TO VISIBILITY.

* THESE STATIONS ARE NOT UNDER NWS QUALITY CONTROL. THEY ALSO MAY NOT
  REPORT WEATHER SUCH AS PRECIPITATION OR FOG.

INZ001>027-110400-
NORTHERN INDIANA

CITY           SKY/WX    TMP DP  RH WIND       PRES   REMARKS
GARY*          LGT SNOW  25  23  93 VRB3      30.35F
VALPARAISO     LGT SNOW  24  20  84 S7        30.35F FOG     WCI  16
MICHIGAN CITY* LGT SNOW  23  23 100 CALM      30.36F
LAPORTE*       LGT SNOW  22  20  92 CALM      30.36F
KNOX*          CLOUDY    23  10  58 S5        30.36F WCI  17
SOUTH BEND     LGT SNOW  22  20  92 SE5       30.36F FOG     WCI  16
GOSHEN         LGT SNOW  23  18  81 S6        30.36F WCI  16
MONTICELLO*    LGT SNOW  24  19  83 CALM      30.37S
LOGANSPORT*    LGT SNOW  23  21  93 SE3       30.38S
ROCHESTER*     LGT SNOW  27  27 100 S5        30.36F WCI  21
WARSAW*        LGT SNOW  23  19  86 CALM      30.36F
ANGOLA*        CLOUDY    21  19  93 S5        30.36F WCI  15
FORT WAYNE     LGT SNOW  24  21  88 S5        30.38F FOG     WCI  18
HUNTINGTON*    LGT SNOW  24  22  93 CALM      30.38F
PERU/GRISSOM   LGT SNOW  23  23 100 SE6       30.35F FOG     WCI  16
MARION*        LGT SNOW  24  22  94 SE5       30.38F WCI  18

$$
INZ028>050-110400-
CENTRAL INDIANA

CITY           SKY/WX    TMP DP  RH WIND       PRES   REMARKS
LAFAYETTE      LGT SNOW  24  23  96 SE5       30.36F FOG     WCI  18
KOKOMO*        LGT SNOW  25  21  86 SE7       30.38S FOG     WCI  17
MUNCIE*        LGT SNOW  26  22  84 S3        30.38F FOG
INDIANAPOLIS   CLOUDY    28  17  63 SE8       30.35F WCI  20

$$
MIZ043>046-050>051-056>058-064>065-071>073-077>080-110400-
SOUTHWEST LOWER MICHIGAN

CITY           SKY/WX    TMP DP  RH WIND       PRES   REMARKS
BATTLE CREEK   CLOUDY    22  16  78 S8        30.35F WCI  12
BENTON HARBOR  LGT SNOW  23  18  81 S8        30.36F WCI  14
COLDWATER*     CLOUDY    24  16  72 S3        30.36F
HILLSDALE*     CLOUDY    21  14  73 S5        30.34F WCI  15
HOLLAND        LGT SNOW  22  19  89 S9        30.34S FOG     WCI  12
GRAND RAPIDS   LGT SNOW  22  17  81 S12       30.35F WCI  10
KALAMAZOO      CLOUDY    23  14  68 S10       30.35F WCI  12
STURGIS*       LGT SNOW  22  19  87 S6        30.36F WCI  15
THREE RIVERS*  FLURRIES  23  18  80 S7        30.36F WCI  15

$$
OHZ001>008-015>018-024>025-110400-
NORTHWEST OHIO

CITY           SKY/WX    TMP DP  RH WIND       PRES   REMARKS
WAUSEON*       CLOUDY    25  16  68 SW5       30.40S WCI  19
DEFIANCE       LGT SNOW  25  19  78 S5        30.41F WCI  19
FINDLAY        LGT SNOW  25  18  74 SW7       30.41S WCI  17
TOLEDO EXPRESS CLOUDY    24  16  71 SW5       30.41S WCI  18
TOLEDO METCALF CLOUDY    25  18  74 SW6       30.43S WCI  18
LIMA           LGT SNOW  24  19  81 S6        30.40F WCI  17

$$
AND FOR LAKE MICHIGAN COASTAL AND OPEN LAKE BUOY OBSERVATIONS

STATION/POSITION TEMP    WIND        PRES    VSBY  WAVE
                 AIR SEA DIR/SP/G                  HT/PER
                 (F)     (DEG/KT/KT) (MB)    (MI)  (FT/S)
CALUMET HARBOR    22     140/  4/  7 1026.8F
BURNS HARBOR      23     170/  5/ 10 1028.4F
SAINT JOSEPH      23     170/  3/  5 1027.8

$$
&&



USA.gov is the U.S. government's official web portal to all federal, state and local government web resources and services.